sat.trackr.live / text

‹ back to catalog

STARLINK-34448

NORAD 64291 · 2025-123A

PAYLOAD ACTIVE UNKNOWN

§ Identity

Operator
Country
US
Launch date
2025-06-08
Launch site
AFWTR
Launch vehicle
Mass (kg)
RCS (m²)

Purposes: comms

External: N2YO · Heavens-Above · Gunter

§ Orbital elements

Epoch: 2026-05-25T00:46:15.980160Z

Period
96.11 min
Inclination
70.0020°
Eccentricity
0.0002369
Mean motion
14.98338139 rev/d
Perigee alt
570.4 km
Apogee alt
573.7 km
Semi-major
6,950.2 km
B*
2.5901e-4
RAAN
1.9874°
Arg perigee
274.2029°
Mean anomaly
85.8860°
Rev number
5,427

§ Raw data

STARLINK-344481 64291U 25123A   26145.03212940  .00002999  00000+0  25901-3 0  99922 64291  70.0020   1.9874 0002369 274.2029  85.8860 14.98338139 54270

JSON: /api/v1/satellites/64291 · /tle

For live sub-satellite position, see the globe view (requires WebGL).

§ Visibility from observer

Set your observer location to see the next 7 days of passes ≥ 10°. The values pass through the URL so the page stays shareable.

No JS? Fill the form by hand. The geolocation button needs JavaScript.